• en France
  • Liste des pays
  • À 7 jours
  • Température de l'eau
  • Carte satellitaire
  • Carte météo
  • Widgets météo
  • user-avatar
    Se connecter

    Météo par heure à Sables d'Or

    Ce jour, 23 Septembre, Samedi

    Heure Température Précipitation Vent Pression Humidité
    00:00 +14°C° 0 mm 6 m/s 761 mmHg 72%
    01:00 +14°C° 0 mm 6 m/s 761 mmHg 74%
    02:00 +13°C° 0 mm 6 m/s 761 mmHg 76%
    03:00 +13°C° 0 mm 6 m/s 761 mmHg 77%
    04:00 +13°C° 0 mm 6 m/s 762 mmHg 78%
    05:00 +13°C° 0 mm 6 m/s 762 mmHg 79%
    06:00 +13°C° 0,1 mm 6 m/s 762 mmHg 76%
    07:00 +14°C° 0,1 mm 6 m/s 762 mmHg 74%
    08:00 +15°C° 0,1 mm 6 m/s 762 mmHg 71%
    09:00 +16°C° 0 mm 5 m/s 763 mmHg 63%
    10:00 +19°C° 0 mm 4 m/s 763 mmHg 55%
    11:00 +21°C° 0 mm 4 m/s 763 mmHg 47%
    12:00 +22°C° 0 mm 3 m/s 763 mmHg 44%
    13:00 +22°C° 0 mm 3 m/s 763 mmHg 42%
    14:00 +24°C° 0 mm 3 m/s 763 mmHg 40%
    15:00 +22°C° 0 mm 3 m/s 763 mmHg 41%
    16:00 +23°C° 0 mm 2 m/s 763 mmHg 42%
    17:00 +23°C° 0 mm 2 m/s 763 mmHg 43%
    18:00 +22°C° 0 mm 3 m/s 763 mmHg 44%
    19:00 +21°C° 0 mm 3 m/s 763 mmHg 46%
    20:00 +20°C° 0 mm 4 m/s 763 mmHg 48%
    21:00 +19°C° 0 mm 4 m/s 763 mmHg 49%
    22:00 +19°C° 0 mm 4 m/s 763 mmHg 50%
    23:00 +18°C° 0 mm 4 m/s 764 mmHg 51%

    Demain, 24 Septembre, Dimanche

    Heure Température Précipitation Vent Pression Humidité
    00:00 +17°C° 0 mm 4 m/s 763 mmHg 51%
    01:00 +17°C° 0 mm 4 m/s 763 mmHg 52%
    02:00 +16°C° 0 mm 3 m/s 763 mmHg 52%
    03:00 +16°C° 0 mm 3 m/s 763 mmHg 53%
    04:00 +16°C° 0 mm 3 m/s 763 mmHg 53%
    05:00 +16°C° 0 mm 3 m/s 763 mmHg 54%
    06:00 +17°C° 0 mm 3 m/s 764 mmHg 51%
    07:00 +18°C° 0 mm 3 m/s 764 mmHg 47%
    08:00 +19°C° 0 mm 3 m/s 764 mmHg 44%
    09:00 +21°C° 0 mm 3 m/s 764 mmHg 41%
    10:00 +24°C° 0 mm 3 m/s 764 mmHg 38%
    11:00 +25°C° 0 mm 3 m/s 764 mmHg 34%
    12:00 +26°C° 0 mm 3 m/s 764 mmHg 34%
    13:00 +26°C° 0 mm 3 m/s 764 mmHg 33%
    14:00 +27°C° 0 mm 3 m/s 764 mmHg 33%
    15:00 +26°C° 0 mm 4 m/s 764 mmHg 35%
    16:00 +26°C° 0 mm 4 m/s 763 mmHg 38%
    17:00 +25°C° 0 mm 4 m/s 763 mmHg 41%
    18:00 +23°C° 0 mm 4 m/s 764 mmHg 47%
    19:00 +21°C° 0 mm 4 m/s 764 mmHg 53%
    20:00 +20°C° 0 mm 3 m/s 764 mmHg 59%
    21:00 +20°C° 0 mm 3 m/s 764 mmHg 62%
    22:00 +19°C° 0 mm 3 m/s 764 mmHg 64%
    23:00 +19°C° 0 mm 2 m/s 764 mmHg 66%

    Après-demain, 25 Septembre, Lundi

    Heure Température Précipitation Vent Pression Humidité
    00:00 +19°C° 0 mm 2 m/s 764 mmHg 68%
    01:00 +18°C° 0 mm 2 m/s 764 mmHg 70%
    02:00 +19°C° 0 mm 1 m/s 764 mmHg 72%
    03:00 +18°C° 0 mm 2 m/s 764 mmHg 73%
    04:00 +18°C° 0 mm 2 m/s 764 mmHg 73%
    05:00 +18°C° 0 mm 2 m/s 764 mmHg 74%
    06:00 +19°C° 0 mm 3 m/s 764 mmHg 70%
    07:00 +20°C° 0 mm 4 m/s 764 mmHg 66%
    08:00 +21°C° 0 mm 4 m/s 764 mmHg 62%
    09:00 +22°C° 0 mm 5 m/s 764 mmHg 57%
    10:00 +23°C° 0 mm 5 m/s 764 mmHg 51%
    11:00 +24°C° 0 mm 6 m/s 764 mmHg 45%
    12:00 +24°C° 0 mm 6 m/s 764 mmHg 45%
    13:00 +26°C° 0 mm 6 m/s 764 mmHg 44%
    14:00 +26°C° 0 mm 7 m/s 764 mmHg 44%
    15:00 +24°C° 0 mm 7 m/s 763 mmHg 48%
    16:00 +24°C° 0 mm 7 m/s 763 mmHg 52%
    17:00 +23°C° 0 mm 7 m/s 763 mmHg 56%
    18:00 +22°C° 0 mm 7 m/s 763 mmHg 64%
    19:00 +21°C° 0 mm 7 m/s 763 mmHg 72%
    20:00 +20°C° 0 mm 7 m/s 764 mmHg 79%
    21:00 +19°C° 0 mm 6 m/s 763 mmHg 81%
    22:00 +19°C° 0 mm 6 m/s 763 mmHg 83%
    23:00 +19°C° 0 mm 6 m/s 763 mmHg 85%

    26 Septembre, Mardi

    Heure Température Précipitation Vent Pression Humidité
    00:00 +17°C° 0 mm 5 m/s 763 mmHg 85%
    01:00 +17°C° 0 mm 5 m/s 762 mmHg 85%
    02:00 +17°C° 0 mm 5 m/s 762 mmHg 85%
    03:00 +17°C° 0 mm 5 m/s 762 mmHg 85%
    04:00 +17°C° 0 mm 5 m/s 762 mmHg 86%
    05:00 +17°C° 0 mm 6 m/s 762 mmHg 86%
    06:00 +19°C° 0 mm 6 m/s 762 mmHg 82%
    07:00 +20°C° 0 mm 6 m/s 762 mmHg 77%
    08:00 +21°C° 0 mm 6 m/s 762 mmHg 72%
    09:00 +23°C° 0,1 mm 6 m/s 762 mmHg 67%
    10:00 +24°C° 0,1 mm 6 m/s 762 mmHg 62%
    11:00 +26°C° 0,1 mm 7 m/s 762 mmHg 58%
    12:00 +26°C° 0,4 mm 7 m/s 762 mmHg 59%
    13:00 +24°C° 0,4 mm 8 m/s 762 mmHg 60%
    14:00 +24°C° 0,4 mm 8 m/s 762 mmHg 61%
    15:00 +23°C° 0,2 mm 8 m/s 762 mmHg 63%
    16:00 +22°C° 0,2 mm 8 m/s 762 mmHg 65%
    17:00 +21°C° 0,2 mm 8 m/s 762 mmHg 68%
    18:00 +21°C° 0 mm 8 m/s 763 mmHg 68%
    19:00 +20°C° 0 mm 8 m/s 763 mmHg 69%
    20:00 +20°C° 0 mm 7 m/s 763 mmHg 69%
    21:00 +20°C° 0 mm 7 m/s 763 mmHg 70%
    22:00 +19°C° 0 mm 6 m/s 763 mmHg 71%
    23:00 +19°C° 0 mm 5 m/s 763 mmHg 72%

    27 Septembre, Mercredi

    Heure Température Précipitation Vent Pression Humidité
    00:00 +19°C° 0 mm 5 m/s 763 mmHg 72%
    01:00 +19°C° 0 mm 5 m/s 763 mmHg 73%
    02:00 +19°C° 0 mm 4 m/s 763 mmHg 73%
    03:00 +17°C° 0 mm 5 m/s 764 mmHg 72%
    04:00 +17°C° 0 mm 5 m/s 764 mmHg 72%
    05:00 +17°C° 0 mm 5 m/s 764 mmHg 71%
    06:00 +19°C° 0 mm 6 m/s 764 mmHg 69%
    07:00 +19°C° 0 mm 6 m/s 764 mmHg 68%
    08:00 +20°C° 0 mm 6 m/s 765 mmHg 66%
    09:00 +21°C° 0,1 mm 7 m/s 765 mmHg 64%
    10:00 +21°C° 0,1 mm 7 m/s 765 mmHg 62%
    11:00 +22°C° 0,1 mm 8 m/s 766 mmHg 60%
    12:00 +22°C° 0 mm 8 m/s 765 mmHg 60%
    13:00 +21°C° 0 mm 8 m/s 765 mmHg 60%
    14:00 +21°C° 0 mm 9 m/s 765 mmHg 60%
    15:00 +21°C° 0 mm 9 m/s 766 mmHg 61%
    16:00 +19°C° 0 mm 9 m/s 766 mmHg 63%
    17:00 +19°C° 0 mm 9 m/s 766 mmHg 64%
    18:00 +18°C° 0 mm 9 m/s 766 mmHg 67%
    19:00 +18°C° 0 mm 8 m/s 766 mmHg 69%
    20:00 +17°C° 0 mm 8 m/s 767 mmHg 72%
    21:00 +17°C° 0 mm 8 m/s 767 mmHg 72%
    22:00 +17°C° 0 mm 8 m/s 767 mmHg 72%
    23:00 +17°C° 0 mm 8 m/s 767 mmHg 72%

    28 Septembre, Jeudi

    Heure Température Précipitation Vent Pression Humidité
    00:00 +17°C° 0 mm 8 m/s 767 mmHg 71%
    01:00 +16°C° 0 mm 8 m/s 766 mmHg 71%
    02:00 +16°C° 0 mm 8 m/s 766 mmHg 70%
    03:00 +16°C° 0 mm 8 m/s 767 mmHg 71%
    04:00 +16°C° 0 mm 8 m/s 767 mmHg 72%
    05:00 +15°C° 0 mm 8 m/s 767 mmHg 72%
    06:00 +16°C° 0,1 mm 8 m/s 767 mmHg 70%
    07:00 +17°C° 0,1 mm 9 m/s 767 mmHg 67%
    08:00 +18°C° 0,1 mm 9 m/s 767 mmHg 64%
    09:00 +18°C° 0,1 mm 9 m/s 767 mmHg 62%
    10:00 +19°C° 0,1 mm 10 m/s 768 mmHg 59%
    11:00 +19°C° 0,1 mm 10 m/s 768 mmHg 57%
    12:00 +19°C° 0,1 mm 10 m/s 768 mmHg 57%
    13:00 +19°C° 0,1 mm 10 m/s 768 mmHg 56%
    14:00 +19°C° 0,1 mm 10 m/s 768 mmHg 56%
    15:00 +18°C° 0 mm 10 m/s 768 mmHg 59%
    16:00 +18°C° 0 mm 10 m/s 768 mmHg 62%
    17:00 +17°C° 0 mm 10 m/s 768 mmHg 64%
    18:00 +16°C° 0,1 mm 9 m/s 768 mmHg 67%
    19:00 +16°C° 0,1 mm 9 m/s 768 mmHg 70%
    20:00 +15°C° 0,1 mm 9 m/s 768 mmHg 73%
    21:00 +15°C° 0,1 mm 8 m/s 768 mmHg 72%
    22:00 +15°C° 0,1 mm 8 m/s 768 mmHg 72%
    23:00 +15°C° 0,1 mm 8 m/s 768 mmHg 72%
    Voir plus